RH
38 32 32 26 23 27 27 23 22 28 29 30 30 25 18 14 14 16 18 18 19 18 16 16 16 16 25 37 43 44 48 49 47 45 44 44 44 43 43 44 44 44 46
38 32 32 28 21 22 24 22 19 22 27 26 24 21 15 14 16 16 17 18 20 19 17 15 15 20 29 40 47 50 48 40 42 41 41 42 40 39 39 39 39 40 40
39 33 29 28 22 21 21 18 17 18 24 24 21 19 16 15 16 15 17 18 18 20 19 16 15 18 30 38 48 48 38 35 43 44 43 40 40 38 37 34 35 34 34
39 32 27 26 21 21 21 17 15 17 19 21 19 17 17 17 16 16 17 17 18 19 19 17 17 24 28 32 36 37 34 37 39 40 38 37 38 33 31 26 26 24 23
39 31 26 23 20 21 21 18 15 16 16 17 17 17 18 18 17 16 16 17 18 18 19 19 19 25 28 30 34 35 34 36 36 37 36 34 25 26 25 23 21 21 21
41 30 26 22 19 20 19 17 16 15 15 15 14 15 16 16 17 17 16 16 17 19 20 20 21 25 29 31 34 36 37 37 36 33 28 22 28 29 29 27 27 25 23
42 32 26 22 19 19 18 16 16 15 15 14 14 14 15 15 15 15 14 13 14 16 18 20 23 28 32 34 35 31 35 33 33 31 22 28 30 34 36 34 31 31 29
41 34 26 22 19 19 17 16 16 16 15 15 15 15 15 15 15 15 15 14 14 15 18 22 26 35 38 36 33 33 35 34 33 26 27 30 36 38 39 39 41 38 31
42 34 25 22 20 20 18 17 16 16 17 16 16 16 17 17 16 16 17 17 19 21 24 28 35 39 38 38 37 33 35 34 27 23 29 36 39 42 41 42 42 38 35
41 35 26 22 20 20 19 19 17 17 18 18 20 20 20 19 18 18 19 20 22 26 33 40 40 39 44 41 39 34 33 31 23 30 34 39 42 40 40 40 39 39 35
43 36 29 23 22 22 21 21 19 18 19 21 22 22 22 21 21 21 23 26 31 38 42 42 44 42 41 39 34 31 30 26 29 33 37 39 40 42 43 42 41 35 30
46 37 31 27 24 23 22 21 20 20 20 21 23 23 23 22 24 29 31 34 41 45 45 44 44 44 40 36 32 28 29 30 31 34 38 39 41 42 42 41 35 29 30
55 42 34 28 26 24 22 22 20 20 21 22 22 22 25 27 32 31 37 46 51 54 58 62 58 52 46 41 35 30 28 27 28 33 40 42 42 41 40 39 33 29 24
58 47 35 30 27 28 26 25 23 22 22 24 30 33 37 40 34 44 53 62 64 69 72 74 67 56 48 41 35 30 29 31 30 31 32 36 41 38 36 33 24 21 20
63 50 37 34 29 28 26 26 25 24 26 31 38 47 48 45 48 58 67 70 73 80 79 73 59 46 42 38 34 36 34 33 33 31 30 28 25 28 27 21 20 20 20
69 54 38 36 33 32 29 27 26 27 32 37 45 59 52 47 58 66 69 71 75 78 69 57 49 45 41 39 36 39 34 32 35 33 30 25 20 12 10 14 19 19 18
74 63 44 37 36 36 33 31 30 30 35 38 48 56 58 58 60 64 68 69 68 66 58 58 49 43 40 37 39 36 36 36 36 30 26 19 13 11 9 10 9 16 18
80 75 51 44 38 38 38 43 42 42 41 39 45 51 59 58 62 63 64 63 63 61 60 55 45 38 36 36 35 36 39 36 33 27 17 13 12 11 10 10 7 6 8
85 84 57 54 43 45 48 51 49 49 48 53 55 55 53 53 58 57 55 59 61 60 58 53 41 35 30 33 34 40 37 32 28 24 15 13 12 11 10 8 8 7 7
91 92 69 59 51 50 53 55 54 57 56 58 60 60 54 54 55 49 54 55 58 59 55 47 39 30 29 30 37 40 35 29 23 18 15 15 14 13 11 7 7 8 7
92 94 88 68 64 56 59 59 61 59 61 56 58 57 56 54 49 48 52 57 55 48 44 42 36 28 32 32 38 36 32 29 23 19 18 16 15 14 10 8 8 9 8
91 90 94 77 68 62 64 62 61 58 58 55 54 56 54 50 51 51 54 51 44 40 40 38 36 33 28 32 34 35 32 27 24 22 21 19 16 14 11 9 9 9 9
86 85 97 85 75 69 66 63 62 60 55 54 56 59 60 60 52 52 52 43 38 36 37 38 39 32 30 35 34 28 31 26 26 26 25 24 19 16 11 10 9 9 9
98 86 98 83 83 70 71 68 62 55 54 51 55 63 64 59 51 51 47 38 34 37 43 44 42 34 28 31 36 34 34 32 25 28 28 27 23 18 13 11 10 10 9
79 94 98 88 82 76 77 69 66 56 52 52 59 65 61 55 47 45 38 35 37 46 48 45 38 35 27 33 34 33 30 28 27 25 24 26 25 20 16 13 12 11 10
65 86 94 96 83 83 79 77 63 58 55 59 68 63 58 41 42 40 38 36 43 47 48 46 39 34 25 32 34 32 31 27 25 24 23 25 26 20 18 16 16 14 12